Wind_Speed
28 21 26 39 35 33 29 30 28 26 23 19 15 13 11 10 7 8 7 9 9 8 6 7 9 10 11 14 15 16 12 11 11 16 10 9 6 11 16 20 26 21 16 12 11
30 25 21 32 36 35 34 33 33 31 26 21 18 17 13 12 8 9 9 12 11 12 11 10 9 11 12 11 15 16 14 13 12 18 16 9 7 13 18 22 25 28 23 20 25
30 28 26 25 31 34 38 35 35 34 28 23 21 19 15 14 11 12 11 12 12 13 13 13 11 11 12 11 12 11 18 14 10 16 15 11 9 13 15 19 29 32 27 22 21
31 28 29 23 26 25 36 37 36 33 29 23 20 18 18 16 14 14 14 14 14 14 12 11 12 11 9 9 7 15 15 11 11 11 16 9 13 18 22 22 30 33 33 18 24
34 32 28 25 27 24 28 33 39 35 30 26 22 18 18 17 15 14 15 15 15 14 13 9 8 9 6 7 9 13 9 7 8 10 11 12 18 20 23 25 28 30 17 14 17
36 34 31 28 27 23 22 30 32 33 30 29 22 19 18 18 17 16 17 15 15 14 11 10 10 9 7 6 8 9 8 7 12 12 10 15 19 23 22 20 21 20 21 17 24
33 32 32 32 27 24 23 25 31 30 30 27 22 20 20 18 17 17 18 15 14 15 16 16 13 11 8 8 9 12 12 12 11 10 18 15 12 17 16 14 16 15 16 22 28
31 33 36 33 30 24 25 25 24 22 25 23 24 23 20 19 19 19 18 18 21 22 20 17 16 13 11 15 18 18 16 15 7 6 3 6 11 12 10 14 17 16 19 23 25
24 32 36 31 28 25 24 24 21 20 21 23 25 25 21 21 20 19 18 19 20 18 17 16 15 12 16 16 14 15 17 14 7 5 12 13 12 9 9 13 15 18 23 22 22
23 25 26 30 31 28 23 23 25 23 20 23 23 21 22 21 22 21 20 20 19 17 16 16 13 16 15 15 15 14 14 11 4 3 10 13 18 9 11 13 14 19 26 26 25
25 22 21 25 26 28 24 25 25 25 22 21 20 20 20 21 22 22 22 21 21 20 17 16 15 14 13 14 15 11 11 8 2 2 8 14 16 10 8 11 17 19 28 21 21
23 22 19 19 25 28 26 24 25 26 21 19 20 20 21 19 20 22 23 22 21 19 16 16 15 15 18 17 17 15 12 6 2 2 10 13 8 10 9 12 15 23 27 17 16
19 21 21 20 24 25 26 26 22 24 23 20 20 22 22 23 22 22 22 21 21 19 16 14 15 19 16 19 18 14 10 6 6 8 11 9 5 7 8 8 13 20 23 18 15
24 20 19 22 24 25 25 22 20 23 24 21 21 22 21 22 22 22 24 23 22 18 17 17 15 19 22 24 20 12 11 11 15 14 14 7 6 7 7 8 11 19 20 16 15
21 18 17 21 25 21 22 23 24 21 21 20 21 22 24 25 22 24 24 24 21 19 17 16 18 19 24 24 15 19 18 17 18 21 9 3 5 10 10 8 9 14 14 17 11
24 21 19 20 25 19 21 25 25 21 18 18 22 25 25 24 25 24 24 23 21 20 17 19 19 23 31 19 16 16 20 20 26 23 9 13 11 2 10 4 9 13 12 13 11
28 24 24 21 25 19 23 25 24 21 21 23 23 25 27 27 24 24 25 24 23 21 17 17 22 22 23 19 19 20 21 23 21 14 10 19 18 6 5 7 9 16 15 15 15
27 25 28 28 23 23 25 26 24 26 28 23 25 27 26 26 23 24 24 24 24 22 22 22 22 23 18 20 18 20 25 21 19 18 15 22 21 14 9 8 11 14 12 14 18
25 26 33 32 24 30 28 30 26 30 28 23 23 28 27 25 25 25 25 25 26 25 26 26 24 20 17 15 17 17 19 19 21 22 19 23 25 19 14 12 15 15 15 19 21
26 27 33 31 22 30 29 28 29 31 29 26 24 26 26 25 26 27 27 26 25 23 26 29 25 20 16 20 20 20 18 19 20 22 20 23 24 22 20 21 21 22 24 24 19
30 29 31 34 26 40 31 29 30 32 29 30 29 26 28 29 24 20 26 25 22 24 24 29 27 23 25 24 22 19 17 18 20 19 21 22 27 27 27 27 26 26 24 23 26
34 32 31 34 33 29 29 37 38 39 32 30 29 29 32 26 23 23 27 23 22 24 29 29 28 26 20 19 22 18 18 15 17 18 21 22 26 28 30 31 32 30 30 30 30
37 36 32 34 36 33 37 37 43 36 38 34 32 30 29 27 31 26 25 21 20 25 31 31 29 24 22 24 25 23 24 24 21 21 25 26 23 25 29 33 33 32 35 37 39
37 39 37 35 35 37 33 40 39 41 43 39 35 33 29 27 29 30 26 26 23 25 27 29 30 27 24 24 26 30 32 32 31 29 27 28 26 27 31 36 33 35 38 37 39
40 42 40 36 37 36 36 50 41 43 43 45 41 36 35 32 31 29 27 26 28 25 23 23 20 23 29 30 27 27 30 32 34 34 32 31 32 26 27 28 31 37 39 39 39
42 43 43 38 36 36 34 40 52 38 47 51 48 43 38 36 32 32 32 29 29 29 28 28 32 33 33 29 25 23 24 30 35 36 36 36 36 35 33 32 33 33 34 36 35
44 43 42 40 37 36 39 38 50 47 39 49 48 49 46 43 40 39 39 39 34 34 35 36 38 36 34 33 32 32 31 30 33 37 38 39 38 38 38 38 37 36 35 33 33
Wind_Direction
231 232 238 232 231 234 236 241 244 248 247 253 256 264 261 263 251 244 222 205 195 182 175 161 155 165 173 183 183 201 214 234 253 278 292 304 307 307 303 314 323 337 353 346 325
230 226 229 240 236 235 238 243 244 248 245 249 253 266 271 262 252 238 214 202 191 186 179 173 159 166 181 197 189 203 228 240 260 276 286 292 288 286 297 308 313 331 346 357 353
225 225 223 227 237 241 239 239 242 246 247 249 249 267 267 253 246 233 208 198 193 190 189 178 172 173 189 207 210 234 227 248 285 287 308 296 274 282 295 304 316 324 342 355 8
221 221 221 222 240 248 235 238 244 241 238 245 257 261 261 244 236 224 208 196 195 195 192 201 197 186 204 232 254 228 232 253 293 296 317 293 266 278 285 301 308 313 323 28 17
220 222 225 217 233 256 242 240 239 241 240 245 254 255 252 240 226 216 208 199 197 191 192 193 214 200 212 236 250 259 267 276 288 272 272 260 254 267 279 288 294 306 330 356 21
225 231 231 228 232 245 256 245 240 240 245 247 251 251 246 232 218 206 200 200 197 189 186 192 204 196 199 228 266 264 246 225 259 281 289 277 268 271 285 296 300 326 340 3 10
228 234 235 236 223 236 246 247 244 241 245 245 245 241 236 224 213 204 197 200 195 186 195 198 198 195 209 224 227 232 236 222 251 275 281 313 292 306 327 326 337 355 340 344 346
234 234 235 233 225 222 232 241 236 234 238 238 233 233 227 213 205 198 200 193 189 195 210 211 205 198 197 216 220 224 217 209 234 273 10 13 350 348 352 360 354 343 339 338 335
234 235 233 232 230 216 222 232 228 228 229 224 223 222 218 208 200 196 198 194 198 203 209 211 219 198 212 221 217 206 188 189 202 308 18 11 3 341 358 356 346 348 354 345 332
233 226 230 233 230 221 216 231 227 213 209 215 212 214 213 206 201 191 192 196 198 203 210 220 212 212 217 218 207 208 218 217 181 1 4 2 349 351 347 355 1 353 342 345 341
229 230 238 232 228 225 210 226 223 210 205 212 208 208 205 207 203 197 196 200 197 196 206 213 218 231 224 211 216 227 210 193 170 20 4 346 0 353 355 12 19 6 360 352 352
225 230 236 234 221 218 212 218 218 212 210 211 205 201 200 203 210 209 198 200 205 204 205 206 221 212 209 216 223 223 216 211 216 277 345 329 5 334 335 343 10 354 347 355 11
227 233 226 220 212 214 212 209 210 213 212 214 208 203 197 199 202 214 206 200 207 206 213 217 210 211 211 220 227 229 241 254 270 281 307 301 318 307 325 320 6 357 355 0 3
220 224 237 217 213 216 207 201 200 209 211 211 210 207 198 203 201 211 207 201 210 213 215 216 217 220 214 210 213 222 226 244 261 279 285 228 210 208 274 324 353 330 342 3 1
222 222 231 219 216 217 212 202 203 203 206 206 210 202 202 202 200 209 212 207 208 215 220 220 221 223 218 212 204 212 228 237 258 274 255 252 221 220 248 304 336 318 337 354 5
222 222 227 232 217 217 209 201 201 198 197 198 201 203 200 203 202 208 207 213 216 218 222 229 240 251 233 213 207 206 223 229 241 246 251 255 266 86 212 274 307 312 311 337 346
222 221 222 233 214 219 203 201 194 187 190 196 195 202 201 201 201 206 215 211 218 213 217 234 246 241 216 213 223 207 221 223 241 246 237 252 269 256 252 252 289 309 306 301 320
225 221 217 222 216 223 204 198 187 192 194 196 200 194 198 204 198 205 209 217 219 211 217 231 231 236 219 216 231 238 226 236 247 263 263 265 271 272 263 266 266 277 298 292 289
223 221 218 220 214 219 206 198 187 201 197 199 204 198 199 197 197 207 212 214 221 215 214 226 234 227 213 215 223 229 230 234 240 257 257 260 274 286 284 274 272 293 296 296 291
219 221 224 219 221 206 203 210 192 200 204 199 196 199 195 196 203 206 210 214 219 214 213 223 228 211 213 221 231 232 242 253 250 252 263 273 278 281 278 279 281 288 299 303 307
220 221 223 216 217 203 195 185 189 194 201 206 199 194 194 200 200 211 214 213 210 214 216 214 222 218 231 239 242 247 255 263 256 258 263 269 272 283 289 292 294 295 300 307 317
218 220 221 218 214 215 202 191 190 196 195 205 198 196 200 199 203 204 212 208 208 204 209 210 225 227 235 255 263 258 254 261 263 257 260 266 271 278 286 289 290 298 300 306 315
216 220 220 219 215 207 205 198 195 204 198 201 206 208 209 203 214 206 189 196 192 201 209 220 224 229 234 247 253 252 262 273 275 278 276 265 267 278 278 284 290 300 309 313 313
218 220 219 219 218 213 209 195 201 205 208 203 208 216 221 221 216 219 208 196 193 211 226 222 226 235 245 254 261 269 276 278 283 285 278 280 279 282 282 284 288 295 297 299 303
218 221 218 220 220 218 211 198 205 205 213 210 206 216 223 231 221 223 232 228 219 216 225 230 238 249 252 248 250 260 265 270 273 275 273 271 272 266 267 274 269 278 284 291 297
218 220 218 217 221 219 215 214 202 209 212 219 213 214 218 224 236 230 231 237 237 236 230 233 234 241 253 261 265 262 266 268 269 269 271 275 278 279 280 278 277 282 289 294 295
216 222 221 218 219 217 216 215 209 213 221 221 219 218 221 225 236 234 230 233 237 241 242 242 244 252 262 268 272 279 288 275 264 265 269 273 277 280 283 287 290 293 295 294 291
Height
5864 5866 5868 5872 5875 5878 5879 5883 5885 5886 5887 5888 5889 5889 5889 5889 5888 5888 5889 5891 5892 5891 5892 5892 5892 5892 5893 5893 5893 5892 5892 5893 5892 5889 5890 5889 5890 5891 5891 5890 5890 5891 5894 5890 5886
5859 5861 5862 5867 5870 5873 5875 5879 5881 5883 5884 5885 5886 5887 5887 5887 5886 5887 5888 5889 5890 5890 5891 5892 5893 5893 5893 5894 5893 5893 5893 5892 5893 5889 5890 5889 5889 5889 5890 5889 5887 5890 5892 5889 5885
5854 5856 5858 5860 5865 5867 5871 5874 5876 5878 5880 5881 5883 5884 5884 5884 5885 5885 5885 5887 5888 5890 5890 5891 5892 5893 5894 5894 5893 5893 5892 5891 5893 5891 5890 5887 5886 5888 5889 5887 5886 5888 5893 5889 5886
5848 5851 5852 5855 5860 5863 5866 5868 5870 5873 5876 5878 5880 5881 5881 5881 5884 5883 5884 5885 5887 5889 5891 5892 5892 5893 5894 5894 5893 5892 5892 5892 5894 5893 5889 5888 5888 5889 5887 5887 5886 5887 5890 5888 5886
5843 5846 5848 5850 5855 5859 5860 5863 5864 5868 5872 5874 5877 5878 5877 5879 5880 5881 5883 5884 5885 5888 5890 5891 5892 5893 5893 5894 5893 5892 5893 5894 5893 5892 5889 5887 5886 5886 5886 5886 5886 5887 5887 5887 5885
5837 5840 5843 5845 5849 5853 5855 5858 5860 5864 5867 5870 5872 5874 5875 5876 5877 5878 5880 5882 5883 5886 5889 5890 5891 5891 5892 5892 5892 5893 5895 5895 5891 5890 5889 5885 5883 5885 5886 5886 5885 5886 5886 5885 5885
5832 5835 5838 5840 5842 5847 5851 5853 5855 5859 5862 5866 5868 5869 5871 5873 5874 5876 5878 5881 5883 5885 5886 5886 5888 5889 5889 5891 5891 5892 5894 5892 5890 5890 5887 5887 5887 5886 5887 5887 5887 5887 5886 5883 5881
5827 5830 5833 5836 5839 5841 5846 5849 5852 5855 5858 5861 5863 5864 5868 5869 5871 5873 5875 5877 5880 5880 5882 5883 5886 5886 5888 5889 5890 5891 5891 5890 5890 5888 5888 5887 5888 5887 5888 5887 5886 5886 5884 5883 5882
5821 5824 5827 5830 5834 5836 5840 5845 5848 5851 5854 5857 5858 5861 5864 5866 5868 5870 5873 5876 5878 5880 5881 5883 5885 5884 5886 5886 5889 5888 5887 5888 5888 5888 5885 5885 5886 5886 5886 5885 5884 5883 5883 5881 5878
5817 5819 5823 5825 5829 5832 5834 5840 5844 5847 5849 5853 5854 5859 5862 5864 5866 5867 5871 5874 5876 5879 5880 5882 5882 5883 5883 5885 5885 5885 5886 5887 5887 5886 5884 5884 5884 5884 5883 5883 5884 5881 5878 5876 5873
5814 5816 5818 5820 5823 5826 5830 5835 5841 5846 5847 5851 5852 5855 5859 5861 5865 5865 5867 5871 5873 5875 5877 5878 5881 5882 5883 5883 5882 5884 5884 5884 5885 5884 5883 5882 5882 5881 5882 5883 5882 5880 5877 5875 5872
5809 5812 5814 5815 5818 5821 5825 5829 5836 5842 5845 5847 5849 5852 5854 5859 5863 5864 5866 5869 5871 5872 5875 5878 5879 5882 5881 5880 5879 5881 5881 5883 5884 5886 5883 5881 5882 5881 5878 5879 5880 5879 5878 5876 5873
5805 5808 5809 5811 5812 5816 5821 5824 5834 5837 5841 5844 5846 5849 5852 5856 5858 5861 5863 5865 5867 5870 5873 5875 5878 5879 5880 5878 5878 5879 5878 5880 5883 5883 5884 5884 5883 5881 5880 5878 5878 5878 5876 5874 5871
5801 5804 5805 5807 5811 5813 5820 5822 5829 5832 5836 5840 5843 5846 5850 5853 5855 5859 5860 5862 5865 5868 5870 5872 5874 5876 5876 5877 5877 5878 5878 5879 5881 5883 5883 5883 5885 5885 5883 5880 5878 5877 5877 5874 5871
5797 5799 5801 5803 5806 5811 5816 5819 5824 5828 5832 5837 5839 5843 5846 5849 5853 5856 5858 5859 5862 5865 5869 5870 5872 5874 5874 5875 5876 5878 5878 5879 5879 5880 5882 5881 5882 5882 5883 5879 5877 5876 5874 5873 5872
5791 5794 5797 5800 5803 5808 5812 5813 5819 5825 5828 5831 5834 5838 5842 5845 5848 5853 5855 5857 5860 5862 5866 5868 5869 5871 5872 5873 5874 5876 5877 5878 5878 5878 5879 5879 5879 5880 5879 5879 5876 5875 5875 5873 5871
5786 5790 5793 5795 5800 5804 5807 5811 5817 5821 5823 5825 5827 5832 5837 5840 5844 5848 5851 5854 5857 5860 5862 5864 5867 5869 5869 5871 5872 5874 5875 5876 5876 5876 5877 5875 5875 5877 5877 5876 5876 5874 5873 5871 5870
5780 5784 5787 5788 5796 5800 5803 5809 5814 5815 5816 5820 5824 5826 5832 5837 5840 5843 5847 5850 5853 5855 5858 5861 5864 5865 5867 5868 5869 5870 5871 5873 5873 5873 5874 5872 5872 5874 5874 5874 5873 5871 5869 5869 5869
5776 5779 5780 5784 5792 5795 5799 5804 5809 5811 5814 5818 5822 5825 5829 5833 5837 5840 5843 5847 5849 5852 5856 5857 5859 5863 5865 5865 5866 5866 5867 5869 5870 5869 5870 5870 5869 5870 5870 5871 5871 5869 5867 5866 5864
5771 5773 5774 5781 5784 5789 5795 5800 5805 5806 5810 5816 5819 5821 5825 5828 5831 5835 5838 5842 5845 5849 5851 5854 5856 5860 5861 5861 5862 5862 5865 5866 5866 5865 5865 5865 5863 5864 5867 5867 5867 5867 5865 5862 5860
5765 5766 5770 5776 5779 5783 5791 5796 5800 5803 5806 5811 5816 5817 5819 5821 5828 5832 5835 5837 5840 5844 5848 5851 5854 5858 5857 5857 5858 5861 5861 5861 5861 5862 5861 5860 5859 5859 5858 5858 5858 5858 5858 5857 5855
5758 5761 5764 5769 5776 5779 5787 5792 5793 5796 5802 5806 5811 5814 5814 5819 5823 5829 5831 5833 5837 5840 5843 5848 5850 5853 5855 5855 5855 5856 5856 5857 5858 5860 5858 5856 5856 5854 5853 5851 5849 5850 5849 5849 5849
5751 5754 5758 5763 5769 5775 5780 5786 5789 5793 5797 5802 5806 5810 5813 5815 5820 5825 5826 5829 5833 5837 5840 5845 5846 5849 5851 5852 5851 5851 5853 5854 5855 5855 5854 5853 5855 5851 5848 5846 5845 5845 5844 5842 5841
5744 5747 5752 5757 5762 5767 5774 5781 5787 5789 5792 5796 5803 5805 5810 5812 5816 5819 5824 5826 5830 5833 5837 5841 5844 5846 5847 5848 5848 5848 5848 5847 5848 5848 5847 5848 5849 5848 5846 5844 5842 5840 5839 5837 5836
5736 5739 5745 5751 5755 5761 5767 5773 5778 5783 5788 5793 5797 5800 5805 5809 5813 5815 5818 5822 5826 5829 5833 5836 5839 5840 5840 5842 5844 5845 5845 5843 5842 5841 5840 5841 5839 5843 5842 5841 5839 5838 5836 5833 5829
5728 5732 5739 5746 5749 5756 5762 5766 5773 5777 5782 5785 5792 5795 5800 5806 5809 5812 5815 5819 5821 5824 5828 5830 5832 5833 5834 5836 5838 5838 5839 5837 5835 5834 5833 5832 5832 5833 5834 5834 5834 5832 5828 5825 5821
5720 5724 5731 5738 5743 5750 5755 5761 5766 5772 5776 5780 5786 5791 5795 5800 5803 5806 5809 5813 5817 5819 5822 5825 5826 5827 5828 5828 5828 5829 5831 5829 5828 5827 5826 5825 5827 5826 5824 5824 5823 5821 5819 5817 5815